TimeEST,TemperatureF,Dew PointF,Humidity,Sea Level PressureIn,VisibilityMPH,Wind Direction,Wind SpeedMPH,Gust SpeedMPH,PrecipitationIn,Events,Conditions,WindDirDegrees,DateUTC
12:53 AM,19.9,7.0,57,30.41,10.0,Calm,Calm,-,N/A,,Clear,0,2013-11-29 05:53:00
1:53 AM,19.0,8.1,62,30.42,10.0,Calm,Calm,-,N/A,,Clear,0,2013-11-29 06:53:00
2:53 AM,18.0,8.1,65,30.43,10.0,Calm,Calm,-,N/A,,Clear,0,2013-11-29 07:53:00
3:53 AM,17.1,10.0,74,30.45,10.0,Calm,Calm,-,N/A,,Clear,0,2013-11-29 08:53:00
4:53 AM,17.1,10.9,77,30.46,10.0,Calm,Calm,-,N/A,,Clear,0,2013-11-29 09:53:00
5:53 AM,16.0,10.0,77,30.48,10.0,Calm,Calm,-,N/A,,Clear,0,2013-11-29 10:53:00
6:53 AM,15.1,10.0,80,30.50,10.0,Calm,Calm,-,N/A,,Clear,0,2013-11-29 11:53:00
7:53 AM,19.0,12.9,77,30.53,10.0,Calm,Calm,-,N/A,,Clear,0,2013-11-29 12:53:00
8:53 AM,21.9,9.0,58,30.54,10.0,Variable,4.6,-,N/A,,Clear,0,2013-11-29 13:53:00
9:53 AM,24.1,7.0,48,30.55,10.0,Variable,5.8,-,N/A,,Clear,0,2013-11-29 14:53:00
10:53 AM,25.0,6.1,45,30.54,10.0,Variable,4.6,-,N/A,,Clear,0,2013-11-29 15:53:00
11:53 AM,26.1,3.9,39,30.54,10.0,Variable,6.9,-,N/A,,Clear,0,2013-11-29 16:53:00
12:53 PM,27.0,3.0,36,30.54,10.0,Variable,5.8,-,N/A,,Clear,0,2013-11-29 17:53:00
1:53 PM,26.1,3.0,37,30.55,10.0,Variable,5.8,-,N/A,,Clear,0,2013-11-29 18:53:00
2:53 PM,26.1,3.0,37,30.57,10.0,Variable,5.8,-,N/A,,Clear,0,2013-11-29 19:53:00
3:53 PM,24.1,3.0,40,30.60,10.0,Calm,Calm,-,N/A,,Clear,0,2013-11-29 20:53:00
4:53 PM,23.0,5.0,46,30.62,10.0,Calm,Calm,-,N/A,,Clear,0,2013-11-29 21:53:00
5:53 PM,21.9,7.0,53,30.66,10.0,Variable,3.5,-,N/A,,Clear,0,2013-11-29 22:53:00
6:53 PM,21.0,8.1,57,30.68,10.0,Calm,Calm,-,N/A,,Clear,0,2013-11-29 23:53:00
7:53 PM,19.9,8.1,60,30.70,10.0,Calm,Calm,-,N/A,,Clear,0,2013-11-30 00:53:00
8:53 PM,19.0,8.1,62,30.71,10.0,Calm,Calm,-,N/A,,Clear,0,2013-11-30 01:53:00
9:53 PM,18.0,8.1,65,30.73,10.0,Calm,Calm,-,N/A,,Clear,0,2013-11-30 02:53:00
10:53 PM,17.1,8.1,68,30.74,10.0,Calm,Calm,-,N/A,,Clear,0,2013-11-30 03:53:00
11:53 PM,14.0,8.1,77,30.75,10.0,Calm,Calm,-,N/A,,Clear,0,2013-11-30 04:53:00